Content
SEND FEEDBACK

Daily
Averages
Monthly
Summary
United States of America

FORT BENNING SOUTH, GEORGIA


Home > North America > United States > Georgia
Elevation: 88 meters     Latitude: 32 21N     Longitude: 085 00W

WEATHER
 
SELECT A DAY
Number of Records: 260,667;   Date Range: 1/1/95 - 8/30/14
 
SHARE

PRINT THIS DATA

[ ← Previous Day ]
WEATHER ALMANAC - 13 FEBRUARY, 2013
[ Next Day → ]
[ °F ]   °C
Weather ElementAverageHighLow
Temperature10.9 °C14 °C (9:48 am)5.2 °C (11:58 pm)
Dewpoint9.7 °C13 °C (7:08 am)3.3 °C (11:58 pm)
Humidity92.9 %100 % (12:13 am)73 % (10:58 am)
Barometer1009.8 hPa1015.6 hPa (10:58 pm)1006.8 hPa (4:30 am)
Wind Speed7.4 km/h24.1 km/h (12:12 pm)
Wind Gust35.2 km/h (12:58 pm)
Weather ElementAverage
Visibility14.2 km
Wind DirectionSSW (203.7 °)

Weather ElementTotal
Precipitation3.05 mm
Heating Degree Days8.7 (Base 18.3)
Averaged from 106 records on 13 February, 2013
WEATHER CONDITIONS BREAKOUT
WIND DIRECTION BREAKOUT
WEATHER BY HOUR - 13 FEBRUARY, 2013
[ °F ]   °C
Local TimeTemperatureDewpointHumidityBarometerVisibilityWind DirectionWind SpeedGust SpeedPrecipitationEventsConditions
12:13 AM10 °C10 °C100 %1009.8 hPa14.5 kmNorth (350°)5.6 km/hRainLight Rain
12:14 AM10 °C10 °C100 %1009.8 hPa14.5 kmNorth (360°)5.6 km/hRainLight Rain
12:24 AM10 °C10 °C100 %1009.5 hPa12.9 kmCalm (360°)RainLight Rain
12:29 AM10 °C10 °C100 %1009.1 hPa14.5 kmVariable3.7 km/hRainLight Rain
12:33 AM10 °C10 °C100 %1009.5 hPa16.1 kmCalmLight Drizzle
12:35 AM10 °C10 °C100 %1009.1 hPa16.1 kmCalmOvercast
12:45 AM10 °C10 °C100 %1009.5 hPa16.1 kmCalm (10°)Overcast
12:54 AM10 °C10 °C100 %1009.1 hPa16.1 kmNE (40°)3.7 km/hOvercast
12:58 AM10 °C10 °C100 %1009.5 hPa16.1 kmENE (60°)5.6 km/h0.51 mmOvercast
1:03 AM10 °C10 °C100 %1009.1 hPa16.1 kmNorth (10°)3.7 km/hOvercast
1:18 AM11 °C10 °C94 %1008.8 hPa16.1 kmEast (100°)3.7 km/hOvercast
1:28 AM11 °C10 °C94 %1008.8 hPa14.5 kmCalm (360°)RainLight Rain
1:42 AM11 °C10 °C94 %1009.1 hPa11.3 kmWNW (300°)3.7 km/hOvercast
1:44 AM11 °C10 °C94 %1009.1 hPa11.3 kmCalm (350°)RainLight Rain
1:58 AM10.7 °C10.6 °C99 %1009.1 hPa14.5 kmENE (60°)1.9 km/h0.25 mmRainLight Rain
1:59 AM11 °C11 °C100 %1008.8 hPa16.1 kmCalm (350°)Overcast
2:14 AM11 °C11 °C100 %1008.5 hPa14.5 kmESE (110°)1.9 km/hOvercast
2:24 AM11 °C11 °C100 %1008.5 hPa14.5 kmCalmOvercast
2:29 AM11 °C11 °C100 %1008.5 hPa16.1 kmVariable3.7 km/hOvercast
2:44 AM11 °C11 °C100 %1008.5 hPa16.1 kmCalm (360°)Overcast
2:58 AM10.8 °C10.7 °C99 %1008.5 hPa16.1 kmCalm (350°)0.25 mmOvercast
3:03 AM11 °C11 °C100 %1008.1 hPa16.1 kmCalmOvercast
3:18 AM11 °C11 °C100 %1008.1 hPa16.1 kmNNW (330°)3.7 km/hOvercast
3:23 AM11 °C11 °C100 %1008.1 hPa16.1 kmNW (320°)3.7 km/hRainLight Rain
3:28 AM11 °C11 °C100 %1008.1 hPa12.9 kmNNW (330°)5.6 km/hRainLight Rain
3:33 AM11 °C11 °C100 %1008.1 hPa12.9 kmNNW (330°)3.7 km/hRainLight Rain
3:38 AM11 °C11 °C100 %1008.1 hPa11.3 kmNNW (330°)1.9 km/hOvercast
3:50 AM11 °C11 °C100 %1007.5 hPa12.9 kmCalmRainLight Rain
3:55 AM11 °C11 °C100 %1007.5 hPa9.7 kmCalmLight Drizzle
3:58 AM10.9 °C10.8 °C99 %1007.8 hPa9.7 kmCalm0 mmLight Drizzle
4:08 AM11 °C11 °C100 %1007.1 hPa9.7 kmSouth (180°)1.9 km/hLight Drizzle
4:10 AM11 °C11 °C100 %1007.1 hPa11.3 kmCalmOvercast
4:20 AM11 °C11 °C100 %1007.1 hPa16.1 kmCalm (340°)Overcast
4:30 AM11 °C11 °C100 %1006.8 hPa16.1 kmCalmOvercast
4:40 AM11 °C11 °C100 %1006.8 hPa16.1 kmCalmOvercast
4:50 AM11 °C11 °C100 %1007.1 hPa16.1 kmCalm (350°)Overcast
4:55 AM11 °C11 °C100 %1007.5 hPa12.9 kmWest (270°)3.7 km/hOvercast
4:58 AM11 °C10.9 °C99 %1007.8 hPa12.9 kmWest (260°)3.7 km/h0 mmOvercast
5:03 AM11 °C11 °C100 %1007.5 hPa9.7 kmCalmOvercast
5:13 AM11 °C11 °C100 %1007.5 hPa6.4 kmSSE (150°)1.9 km/hOvercast
5:18 AM11 °C11 °C100 %1007.5 hPa6.4 kmCalm (20°)Overcast
5:28 AM11 °C11 °C100 %1007.8 hPa4.8 kmWNW (290°)3.7 km/hOvercast
5:33 AM11 °C11 °C100 %1007.8 hPa4 kmNE (50°)1.9 km/hOvercast
5:38 AM11 °C11 °C100 %1007.8 hPa4 kmCalm (320°)Overcast
5:48 AM11 °C11 °C100 %1008.1 hPa4.8 kmCalmOvercast
5:58 AM11.4 °C11.3 °C99 %1008.5 hPa6.4 kmSE (130°)1.9 km/hOvercast
6:08 AM11 °C11 °C100 %1008.5 hPa4.8 kmSSE (150°)5.6 km/hOvercast
6:13 AM12 °C11 °C94 %1008.5 hPa4 kmESE (120°)3.7 km/hOvercast
6:33 AM12 °C11 °C94 %1008.5 hPa4 kmENE (70°)1.9 km/hOvercast
6:38 AM12 °C11 °C94 %1008.8 hPa4.8 kmCalm (350°)Overcast
6:53 AM12 °C12 °C100 %1008.5 hPa8 kmVariable3.7 km/hOvercast
6:58 AM12 °C11.9 °C99 %1008.8 hPa12.9 kmVariable5.6 km/hOvercast
7:03 AM13 °C12 °C94 %1008.8 hPa16.1 kmVariable9.3 km/hOvercast
7:08 AM13 °C13 °C100 %1008.8 hPa16.1 kmWest (280°)11.1 km/hOvercast
7:13 AM13 °C13 °C100 %1008.8 hPa16.1 kmWest (270°)11.1 km/hOvercast
7:28 AM13 °C13 °C100 %1009.1 hPa16.1 kmWest (270°)13 km/hMostly Cloudy
7:33 AM13 °C13 °C100 %1009.1 hPa16.1 kmWest (270°)13 km/hMostly Cloudy
7:38 AM13 °C13 °C100 %1008.8 hPa16.1 kmWest (270°)9.3 km/hMostly Cloudy
7:58 AM13 °C12.5 °C97 %1009.1 hPa16.1 kmVariable3.7 km/hScattered Clouds
8:08 AM13 °C12 °C94 %1009.8 hPa16.1 kmWest (280°)11.1 km/hMostly Cloudy
8:18 AM13 °C12 °C94 %1009.8 hPa16.1 kmVariable9.3 km/hMostly Cloudy
8:23 AM13 °C12 °C94 %1009.8 hPa16.1 kmWSW (250°)11.1 km/hMostly Cloudy
8:28 AM13 °C12 °C94 %1009.5 hPa16.1 kmVariable7.4 km/hScattered Clouds
8:58 AM13.5 °C11.8 °C89 %1010.5 hPa16.1 kmVariable7.4 km/hClear
9:48 AM14 °C11 °C82 %1011.2 hPa16.1 kmWNW (290°)16.7 km/hMostly Cloudy
9:58 AM13.8 °C11.1 °C84 %1011.5 hPa16.1 kmWest (270°)13 km/hMostly Cloudy
10:03 AM14 °C11 °C82 %1011.2 hPa16.1 kmWest (280°)14.8 km/hMostly Cloudy
10:58 AM13.4 °C8.7 °C73 %1010.8 hPa16.1 kmWest (260°)11.1 km/h33.3 km/hPartly Cloudy
11:58 AM13.4 °C8.9 °C74 %1011.9 hPa16.1 kmWest (270°)14.8 km/h27.8 km/hPartly Cloudy
12:11 PM13 °C9 °C77 %1011.5 hPa16.1 kmWNW (290°)22.2 km/h31.5 km/hMostly Cloudy
12:12 PM13 °C9 °C77 %1011.5 hPa16.1 kmWest (280°)24.1 km/h31.5 km/hRainLight Rain
12:20 PM13 °C9 °C77 %1011.5 hPa16.1 kmWest (280°)16.7 km/h29.6 km/hMostly Cloudy
12:29 PM13 °C9 °C77 %1011.5 hPa16.1 kmWNW (300°)24.1 km/h29.6 km/hRainLight Rain
12:39 PM13 °C9 °C77 %1010.8 hPa16.1 kmWNW (290°)22.2 km/h31.5 km/hRainLight Rain
12:58 PM12.8 °C8.4 °C75 %1011.2 hPa16.1 kmWNW (290°)14.8 km/h35.2 km/h0 mmRainLight Rain
1:01 PM13 °C9 °C77 %1011.2 hPa16.1 kmWNW (290°)16.7 km/h35.2 km/hScattered Clouds
1:34 PM12 °C8 °C77 %1010.8 hPa16.1 kmWNW (290°)14.8 km/hRainLight Rain
1:49 PM12 °C8 °C77 %1010.8 hPa16.1 kmWest (280°)14.8 km/hRainRain
1:54 PM11 °C8 °C82 %1010.5 hPa16.1 kmWest (280°)11.1 km/hRainLight Rain
1:58 PM11.4 °C8.3 °C81 %1010.5 hPa16.1 kmWest (270°)7.4 km/h0.25 mmRainLight Rain
2:38 PM10 °C9 °C94 %1010.8 hPa14.5 kmVariable5.6 km/hRainLight Rain
2:58 PM10 °C9 °C94 %1011.2 hPa16.1 kmWNW (290°)18.5 km/h1.78 mmRainLight Rain
3:03 PM10 °C9 °C94 %1011.2 hPa16.1 kmWNW (290°)13 km/hRainLight Rain
3:18 PM9 °C8 °C93 %1011.9 hPa16.1 kmWest (280°)18.5 km/hRainLight Rain
3:38 PM9 °C7 °C87 %1011.2 hPa16.1 kmWNW (290°)16.7 km/hMostly Cloudy
3:43 PM9 °C7 °C87 %1011.2 hPa16.1 kmWest (280°)16.7 km/hScattered Clouds
3:58 PM9.3 °C7.6 °C89 %1010.8 hPa16.1 kmVariable9.3 km/h0 mmScattered Clouds
3:59 PM9 °C8 °C93 %1011.5 hPa16.1 kmWest (270°)14.8 km/hRainLight Rain
4:12 PM9 °C7 °C87 %1011.5 hPa16.1 kmWest (260°)13 km/hClear
4:27 PM9 °C8 °C93 %1011.9 hPa16.1 kmWest (260°)7.4 km/hMostly Cloudy
4:58 PM9.3 °C7.5 °C89 %1012.2 hPa16.1 kmWest (280°)11.1 km/h0 mmMostly Cloudy
5:55 PM9 °C8 °C93 %1012.2 hPa16.1 kmWNW (290°)9.3 km/hPartly Cloudy
6:16 PM9 °C8 °C93 %1012.9 hPa16.1 kmWest (280°)7.4 km/hMostly Cloudy
6:26 PM9 °C8 °C93 %1012.9 hPa16.1 kmWNW (290°)9.3 km/hScattered Clouds
6:31 PM9 °C8 °C93 %1012.9 hPa16.1 kmWNW (290°)7.4 km/hMostly Cloudy
6:58 PM9.3 °C7.3 °C87 %1013.5 hPa16.1 kmWest (270°)5.6 km/hMostly Cloudy
7:18 PM9 °C7 °C87 %1013.2 hPa16.1 kmWNW (300°)7.4 km/hScattered Clouds
7:43 PM9 °C6 °C82 %1013.5 hPa16.1 kmWNW (290°)11.1 km/hScattered Clouds
7:58 PM8.8 °C6.1 °C83 %1014.2 hPa16.1 kmWNW (290°)13 km/hPartly Cloudy
8:33 PM9 °C6 °C82 %1013.9 hPa16.1 kmWNW (300°)14.8 km/hMostly Cloudy
8:58 PM8.5 °C5.4 °C81 %1014.6 hPa16.1 kmNW (310°)13 km/hScattered Clouds
9:38 PM8 °C5 °C81 %1014.6 hPa16.1 kmWNW (300°)13 km/hMostly Cloudy
9:58 PM8 °C5.3 °C83 %1014.9 hPa16.1 kmNW (310°)13 km/hMostly Cloudy
10:03 PM8 °C5 °C81 %1014.9 hPa16.1 kmNW (320°)16.7 km/hScattered Clouds
10:58 PM6.4 °C3.9 °C84 %1015.6 hPa16.1 kmNW (320°)11.1 km/hClear
11:58 PM5.2 °C3.3 °C88 %1015.6 hPa16.1 kmNW (310°)9.3 km/hClear
Hourly data recorded from KLSF, located 0 kilometers away from Fort Benning South, Georgia







STORIES FROM OUR PARTNERS